Location: Newark
(46.9000°N, 28.3500°E)
Time: 20:29:32
(UTC+00:00)

Explorer 7 - Pass Details

Date: 27 August 2019
Orbit: 485 x 680 km, 50.3° (Epoch: 14 October)

Event Time Altitude Azimuth Distance (km) Brightness Sun altitude
Rises 08:14:02 0° 269° (W) 3,009 10.3 46.0°
Reaches altitude 10° 08:16:28 10° 274° (W) 2,078 9.6 46.3°
Maximum altitude 08:21:12 58° 353° (N) 750 7.8 46.8°
Drops below altitude 10° 08:25:43 10° 73° (ENE) 1,976 10.0 47.3°
Sets 08:27:59 0° 78° (ENE) 2,848 10.7 47.5°
